Regional Weather Roundup
Issued by NWS

Home | Current Version | Previous Version | Graphics & Text | Print | Product List | Glossary On
Versions: 1 2 3 4 5 6 7 8 9 10 11 12 13 14 15 16 17 18 19 20 21 22 23 24 25 26 27
000
ASUS45 KBOU 261107
RWRCO

WEATHER ROUNDUP FOR COLORADO
NATIONAL WEATHER SERVICE DENVER/BOULDER CO
500 AM MDT FRI AUG 26 2016

NOTE: "FAIR" INDICATES FEW OR NO CLOUDS BELOW 12000 FEET WITH NO
SIGNIFICANT WEATHER AND/OR OBSTRUCTIONS TO VISIBILITY.

COZ001>005-013-030-031-261200-
...NORTHWEST COLORADO...

CITY           SKY/WX    TMP DP  RH WIND       PRES   REMARKS
CRAIG          FAIR      47  38  71 CALM      30.22S
HAYDEN         FAIR      46  36  66 SE7       30.23S
MEEKER         FAIR      44  39  82 SE3       30.24R
MOUNT WERNER   NOT AVBL
STEAMBOAT SPGS FAIR      46  39  76 CALM      30.24F
WALDEN         FAIR      43  34  70 CALM      30.30F
$$

COZ006>008-011-261200-
...WEST CENTRAL VALLEYS...

CITY           SKY/WX    TMP DP  RH WIND       PRES   REMARKS
GRAND JUNCTION FAIR      53  48  83 E10       30.17S
MONTROSE       FAIR      50  46  86 S6        30.25S
EAGLE          FAIR      45  43  93 CALM      30.30S
RIFLE          FAIR      49  48  97 CALM      30.23S
DELTA          NOT AVBL
NUCLA          FAIR     N/A N/A N/A CALM      30.27S
$$

COZ017>023-064>068-261200-
...SOUTHWEST COLORADO...

CITY           SKY/WX    TMP DP  RH WIND       PRES   REMARKS
DURANGO        FAIR      51  46  83 NE6       30.25F
CORTEZ         FAIR      52  49  89 CALM      30.22F
PAGOSA SPRINGS CLOUDY    49  47  93 CALM      30.31S
TELLURIDE      FAIR      43  42  97 CALM      30.38S
WOLF CREEK PAS CLOUDY    34  34 100 SW18      30.51S WCI  23
$$

COZ009-010-012-014-032>034-037-058>063-261200-
...CENTRAL COLORADO...

CITY           SKY/WX    TMP DP  RH WIND       PRES   REMARKS
ASPEN          MOCLDY    40  39  97 CALM      30.31R
BUENA VISTA    CLOUDY    46  44  91 CALM      30.31F
COPPER MTN     MOCLDY    37  32  81 SW6       30.47S
BERTHOUD PASS  HAZE      30  18  59 N22       30.46F VSB<1/4 WCI  17
COTTONWOOD PAS CLOUDY    45  37  76 CALM      30.38S
GUNNISON       MOCLDY    48  43  81 CALM      30.34F
KREMMLING      FAIR      43  37  81 SE3       30.31R
LEADVILLE      CLOUDY    38  37  97 NE6       30.37F
MONARCH PASS   FOG       34  32  93 SW16      30.57S VSB<1/4 WCI  23
SALIDA         CLOUDY    47  46  95 CALM      30.37S
SUNLIGHT       MOCLDY    37  37 100 N10       30.45S FOG
WILKERSON PASS MOCLDY    34  34 100 SW6       30.45S WCI  29
$$

COZ069>075-261200-
...SAN LUIS VALLEY/SANGRE DE CRISTO MOUNTAINS...

CITY           SKY/WX    TMP DP  RH WIND       PRES   REMARKS
ALAMOSA        MOCLDY    42  40  92 W6        30.30S
LA VETA PASS   MOCLDY    43  39  87 S7        30.41S
SAGUACHE       CLOUDY    45  43  93 NW10      30.32S
$$

COZ035-036-038>040-261200-
...NORTHERN COLORADO FRONT RANGE...

CITY           SKY/WX    TMP DP  RH WIND       PRES   REMARKS
DENVER INTL AP CLOUDY    56  48  74 S10       30.13F
DMNS CITY PARK   N/A     55  48  77 E5        30.13F
AURORA         CLOUDY    57  46  67 S9        30.15F
FRONT RANGE AP NOT AVBL
ERIE MUNI ARPT CLOUDY    55  51  85 N6        30.13F
BOULDER MUN AP NOT AVBL
CENTENNIAL     MOCLDY    56  44  64 E7        30.15F
BROOMFIELD     DRIZZLE   55  52  88 NW8       30.16F
FORT COLLINS   FAIR      52  48  87 N3        30.15F
LONGMONT       FAIR      56  52  88 NW5       30.17F
$$

COZ041-046-047-076>085-087-088-261200-
...PIKES PEAK/PALMER DIVIDE AND SOUTHERN FOOTHILLS...

CITY           SKY/WX    TMP DP  RH WIND       PRES   REMARKS
COLO. SPRINGS  MOCLDY    53  49  86 E6        30.22F
A. F. ACADEMY  FAIR      45  44  96 N7        30.22F
SCHRIEVER AFB  NOT AVBL
ELLICOTT       NOT AVBL
FALCON         CLOUDY    51  50  99 S3        30.25F FOG
FORT CARSON    MOCLDY    51  47  87 S2        30.20S
LIMON          MOCLDY    56  54  93 SE9       30.19F
MONUMENT HILL  MOCLDY    46  45  93 SW8       30.25S
TRINIDAD       FAIR      54  50  86 W7        30.22S
$$

COZ042>045-048>051-090-091-261200-
...NORTHEAST COLORADO...

CITY           SKY/WX    TMP DP  RH WIND       PRES   REMARKS
GREELEY ARPT   MOCLDY    52  48  87 E5        30.14F
AKRON          MOCLDY    56  52  86 SE12      30.18S
BURLINGTON     CLOUDY    55  50  83 SE7       30.19F
WRAY           MOCLDY    55  48  76 SE6       30.18S
STERLING       CLOUDY    61  54  77 S12       30.14F
HOLYOKE        NOT AVBL
FORT MORGAN    FAIR      54  51  92 E6        30.15F
$$

COZ086-089-092>099-261200-
...SOUTHEAST COLORADO...

CITY           SKY/WX    TMP DP  RH WIND       PRES   REMARKS
PUEBLO         MOCLDY    57  53  86 S6        30.16F
LA JUNTA       FAIR      59  57  93 E5        30.15F
LAMAR          MOCLDY    61  58  90 E7        30.14F
SPRINGFIELD      N/A     59  58  96 NE3       30.17R
$$




USA.gov is the U.S. government's official web portal to all federal, state and local government web resources and services.